Wind_Speed
13 10 9 13 7 6 3 5 2 7 8 8 6 13 13 14 13 21 19 24 23 26 23 22 17 18 18 18 17 16 14 12 10 8 6 4 4 3 2 2 3 1 2 3
13 9 4 6 6 2 4 7 6 7 8 11 8 12 12 13 13 15 22 24 24 25 25 23 21 21 19 20 19 18 15 13 10 7 5 4 2 1 2 1 5 1 1 2
8 27 8 5 8 7 3 3 7 8 13 14 10 9 11 14 14 16 17 23 24 22 28 25 24 23 21 21 20 18 16 13 11 8 7 4 3 1 1 2 3 3 2 3
4 3 5 8 6 10 12 4 4 6 11 6 18 6 25 18 16 16 19 19 23 29 25 24 27 26 24 24 21 19 18 15 13 11 8 7 4 2 4 2 4 1 4 3
17 8 8 9 8 7 7 2 6 9 12 9 9 6 16 19 17 17 19 22 21 24 29 26 28 27 25 26 22 20 19 17 15 12 13 8 5 4 1 1 3 1 5 3
23 22 14 11 6 5 5 10 11 11 8 7 22 8 15 7 15 17 19 22 22 24 25 27 27 30 29 26 24 22 22 19 17 14 11 14 8 6 2 2 2 4 4 4
16 16 17 9 12 7 9 14 3 6 2 9 15 3 14 11 10 19 20 23 22 23 25 26 27 28 28 29 27 24 23 22 20 17 14 12 12 12 10 7 4 4 2 6
13 7 15 10 12 9 10 16 7 5 6 3 4 11 5 11 6 19 22 22 22 22 23 25 26 27 27 27 27 25 27 25 21 20 18 15 14 12 12 11 10 8 7 5
11 11 6 3 8 11 5 8 12 13 2 5 6 10 11 10 10 16 20 22 23 22 22 22 24 25 27 28 28 27 26 26 26 22 20 18 18 16 15 15 13 10 9 9
16 5 8 13 8 13 16 11 5 5 3 6 3 10 9 9 11 12 17 20 22 22 21 21 21 23 24 25 27 27 26 24 21 22 20 19 18 18 18 18 17 16 14 13
18 10 4 9 14 3 9 12 12 9 11 9 8 4 10 8 12 13 17 22 22 22 21 21 21 21 20 21 23 25 25 24 23 21 20 20 18 18 18 17 17 16 15 15
17 11 13 16 7 9 11 7 16 7 9 14 4 7 9 5 12 13 13 22 24 23 22 22 21 20 20 20 20 21 22 22 22 20 20 20 20 19 19 18 16 16 15 15
14 12 13 13 13 12 10 13 15 6 12 6 3 3 4 5 9 11 14 17 20 23 23 22 21 20 19 19 18 18 19 19 18 18 18 18 18 17 17 17 16 14 14 13
7 14 19 10 10 15 10 17 8 14 4 9 9 11 16 11 11 10 9 12 18 24 25 24 21 20 19 18 18 18 17 16 16 16 15 15 16 15 13 13 13 12 13 13
9 17 18 17 18 17 18 29 6 11 13 4 19 7 4 14 13 11 11 13 16 22 26 23 21 21 21 20 19 18 18 17 15 16 15 14 13 13 12 12 12 10 10 10
12 15 10 15 15 17 17 14 15 7 9 11 10 12 8 18 16 13 14 16 18 23 25 25 23 20 21 20 20 19 19 18 17 15 16 14 14 13 11 11 10 8 10 12
12 11 14 15 15 11 15 16 14 8 10 10 7 8 7 11 12 14 15 16 18 22 26 26 24 22 20 18 19 19 19 18 16 14 14 15 12 11 12 12 10 8 7 6
14 15 10 13 16 5 25 10 12 8 19 9 13 9 4 6 12 13 14 15 17 20 24 24 23 20 19 17 16 18 19 20 16 15 14 14 15 12 11 10 8 7 8 7
14 13 13 12 15 20 25 9 12 14 8 6 5 4 3 5 13 13 14 13 14 18 23 23 22 20 18 18 18 19 20 20 18 16 15 13 13 12 11 9 7 7 7 6
17 17 13 15 18 18 20 11 18 5 6 5 3 2 3 4 11 9 18 15 14 18 22 22 21 21 20 20 20 21 20 20 18 16 15 14 12 10 9 8 7 6 4 5
12 12 16 14 16 19 12 9 8 13 3 7 7 5 2 5 12 5 14 16 17 20 21 20 21 22 21 20 21 21 21 19 18 16 14 13 11 10 8 8 7 9 9 7
17 13 13 15 19 22 13 5 7 9 11 9 7 6 5 5 4 4 10 18 20 23 22 23 23 22 22 23 23 21 20 20 18 17 14 12 9 9 9 10 10 9 7 7
11 8 8 8 5 10 12 12 11 10 9 9 6 6 6 7 8 2 9 18 20 22 23 24 24 24 23 22 22 22 23 21 19 15 13 12 13 11 11 10 10 10 10 7
4 4 5 10 3 6 5 7 8 7 6 5 6 5 6 7 9 6 6 15 19 22 23 23 24 25 24 21 19 21 23 20 17 15 15 15 14 14 13 11 10 8 6 6
12 2 6 12 15 9 7 5 3 3 4 4 4 4 5 6 7 8 2 6 17 21 23 23 24 23 22 20 19 20 21 20 18 17 16 16 15 14 15 15 14 8 11 10
16 15 12 12 17 7 7 3 3 4 4 3 4 5 5 5 5 6 5 3 11 20 24 24 25 23 22 22 23 22 22 21 19 18 18 16 16 15 12 14 16 10 13 11
Wind_Direction
207 270 5 296 5 352 292 283 170 125 142 204 230 133 164 176 168 155 172 173 192 188 177 177 169 179 183 182 185 181 178 179 177 171 160 165 197 178 231 259 342 148 127 142
256 351 228 354 305 237 206 206 155 123 171 240 150 143 166 179 177 175 166 187 192 180 179 184 190 188 193 189 194 194 192 189 183 185 179 169 192 203 192 143 293 251 264 265
66 263 311 281 249 226 190 337 146 163 193 222 142 131 179 179 183 173 181 184 183 191 181 188 191 195 190 195 197 200 198 196 194 186 184 195 198 254 131 218 226 232 211 286
168 306 325 294 326 337 101 27 247 209 214 122 228 164 260 182 188 181 182 192 188 183 198 188 195 198 197 199 197 201 200 196 201 198 197 194 214 190 106 130 196 254 250 268
277 242 336 304 14 343 56 268 250 233 257 233 190 249 200 171 187 183 189 184 195 192 188 197 195 198 201 199 198 200 202 203 197 208 189 208 205 222 141 141 296 57 268 303
270 276 274 272 312 299 309 236 228 223 244 33 235 296 7 207 189 189 187 185 191 191 198 196 197 192 198 201 199 203 203 204 205 204 213 205 206 220 204 195 249 276 269 282
248 239 233 211 255 189 238 240 241 218 165 235 223 199 176 184 172 176 180 184 186 189 193 201 198 197 198 199 202 201 200 207 206 208 208 218 220 223 225 227 244 267 257 247
269 198 196 165 246 276 201 284 262 292 343 153 224 123 254 101 118 158 170 179 179 186 188 197 202 202 200 203 201 203 209 207 212 212 215 224 222 226 231 230 226 240 255 256
242 172 226 207 250 249 235 252 308 295 207 232 123 280 115 118 138 150 164 172 176 182 185 191 197 201 205 205 206 206 206 215 218 219 224 221 228 222 221 223 231 248 263 260
260 236 196 157 228 244 270 341 266 333 358 11 311 321 80 147 152 166 161 178 176 181 185 186 192 196 201 205 207 208 209 213 216 215 220 219 222 227 229 228 234 238 236 243
244 253 171 184 212 306 200 230 226 172 176 242 231 118 71 134 155 167 172 182 178 183 183 186 190 190 193 198 203 206 209 212 213 214 215 219 222 225 232 232 239 245 250 251
217 241 233 221 172 200 309 321 279 243 312 342 54 93 25 80 143 161 184 180 180 185 183 183 182 183 186 192 196 200 205 209 214 216 217 220 225 222 230 234 234 240 244 247
212 234 257 247 208 182 233 255 268 282 272 259 325 155 226 188 130 165 172 182 186 187 187 183 182 184 184 189 193 196 199 205 208 212 216 216 223 226 227 232 241 237 238 243
302 234 247 266 40 360 324 267 266 292 309 23 14 128 205 148 132 148 160 172 189 191 188 184 185 187 191 193 197 196 199 199 201 203 207 214 215 222 222 227 226 229 232 248
246 252 267 273 122 234 251 244 246 231 303 41 228 342 31 116 125 150 161 170 183 192 187 185 189 186 194 199 199 202 200 201 200 197 202 203 204 207 209 212 222 230 241 258
233 269 286 287 297 203 239 271 219 234 276 287 329 298 105 100 120 153 165 174 178 189 186 191 195 192 199 199 196 198 195 198 190 196 193 201 197 198 204 220 234 235 229 235
242 237 257 271 280 290 231 251 236 271 248 285 295 47 13 116 144 163 173 181 183 189 188 190 194 194 194 191 192 193 188 184 188 191 181 191 197 198 201 212 205 213 215 207
273 283 271 272 276 141 280 71 1 127 257 339 337 79 1 144 157 160 170 178 186 189 191 189 191 190 190 189 191 189 187 184 179 170 170 178 194 190 186 186 195 191 194 202
237 255 275 272 274 282 213 202 223 241 97 48 337 354 35 249 139 158 171 182 188 190 191 191 189 186 181 174 167 159 159 159 158 160 172 173 177 178 182 191 194 193 217 227
240 244 243 254 265 239 268 75 354 315 252 47 37 68 329 206 208 154 179 177 175 174 178 182 179 175 171 168 160 156 152 150 153 158 159 173 176 186 186 191 186 195 181 141
221 235 258 243 255 269 29 80 200 227 116 102 68 36 322 276 43 55 175 177 174 173 173 174 175 175 175 168 164 158 152 152 160 167 181 185 187 185 182 169 150 134 150 151
270 276 249 238 255 248 10 291 306 96 106 90 80 55 6 336 321 256 201 182 178 176 175 174 173 175 172 168 166 159 154 169 176 179 181 180 169 146 159 159 152 152 147 127
256 302 318 328 21 46 39 55 58 68 92 87 75 49 22 15 360 269 183 182 182 180 178 178 176 172 173 173 170 161 176 175 175 171 170 160 161 160 149 149 137 127 119 119
233 87 267 309 195 88 80 76 61 52 69 65 65 39 29 14 22 27 199 188 187 184 184 183 180 178 175 174 171 181 176 174 171 171 164 165 159 148 138 128 124 132 132 153
282 159 272 264 266 271 233 190 91 50 30 28 26 10 11 2 18 22 30 212 199 192 189 189 187 184 178 172 169 174 174 176 172 164 157 153 154 146 143 159 148 169 166 155
261 264 262 259 267 307 308 193 137 297 300 307 329 331 333 329 343 1 11 254 220 207 195 193 191 186 180 175 176 177 180 179 172 160 161 162 158 154 159 154 170 174 176 184
Height
1481 1474 1506 1467 1463 1461 1463 1462 1464 1461 1465 1468 1467 1477 1487 1493 1495 1500 1509 1517 1520 1522 1527 1533 1538 1543 1547 1551 1554 1557 1560 1563 1565 1568 1570 1571 1572 1572 1573 1573 1573 1573 1572 1572
1478 1506 1468 1465 1459 1460 1460 1462 1462 1462 1463 1466 1468 1474 1485 1492 1493 1495 1503 1511 1514 1518 1525 1532 1537 1541 1545 1549 1553 1556 1559 1563 1565 1568 1570 1571 1572 1574 1574 1574 1573 1572 1572 1572
1499 1486 1468 1463 1457 1455 1460 1457 1459 1459 1458 1460 1464 1477 1486 1488 1492 1494 1496 1502 1509 1516 1521 1529 1535 1538 1542 1547 1551 1554 1558 1561 1565 1567 1569 1571 1572 1572 1573 1573 1572 1573 1573 1572
1476 1465 1468 1460 1457 1454 1458 1453 1453 1454 1460 1513 1459 1537 1520 1481 1486 1489 1493 1497 1501 1510 1518 1523 1530 1534 1539 1543 1548 1552 1555 1559 1563 1565 1568 1570 1571 1571 1572 1573 1572 1573 1572 1572
1478 1465 1463 1464 1459 1457 1462 1455 1452 1449 1449 1446 1455 1454 1489 1472 1483 1483 1485 1492 1498 1504 1511 1519 1525 1531 1536 1539 1544 1549 1553 1557 1561 1563 1565 1569 1570 1570 1571 1572 1571 1571 1571 1571
1472 1466 1466 1460 1456 1455 1455 1452 1449 1445 1444 1519 1506 1456 1505 1466 1470 1474 1480 1485 1493 1499 1506 1512 1518 1524 1531 1534 1540 1545 1550 1554 1557 1561 1563 1565 1568 1569 1569 1571 1571 1571 1570 1570
1462 1457 1452 1455 1457 1451 1453 1450 1502 1479 1483 1493 1446 1444 1476 1450 1451 1462 1471 1479 1489 1496 1504 1509 1513 1518 1525 1530 1536 1541 1547 1550 1553 1557 1559 1562 1564 1566 1567 1568 1569 1570 1571 1570
1478 1473 1446 1446 1452 1449 1449 1444 1467 1483 1473 1466 1437 1469 1471 1443 1449 1455 1467 1477 1485 1493 1499 1506 1511 1516 1521 1527 1532 1538 1543 1547 1550 1553 1555 1558 1560 1563 1564 1566 1567 1568 1568 1569
1459 1482 1443 1447 1445 1446 1446 1456 1429 1442 1431 1450 1475 1461 1446 1444 1449 1455 1465 1473 1482 1490 1495 1502 1508 1513 1518 1523 1529 1534 1539 1542 1546 1550 1553 1555 1556 1558 1562 1563 1564 1565 1566 1566
1447 1466 1442 1441 1446 1444 1442 1438 1453 1444 1487 1483 1478 1468 1468 1456 1453 1455 1464 1472 1480 1487 1492 1499 1504 1510 1515 1520 1526 1531 1536 1539 1543 1546 1549 1551 1553 1554 1557 1558 1560 1561 1562 1562
1447 1447 1450 1442 1446 1455 1447 1448 1440 1447 1463 1478 1466 1474 1438 1450 1452 1454 1460 1470 1478 1485 1490 1496 1501 1507 1513 1518 1522 1527 1532 1535 1538 1541 1545 1548 1550 1552 1552 1554 1555 1556 1557 1557
1445 1443 1453 1444 1428 1430 1431 1436 1439 1451 1469 1458 1445 1480 1451 1447 1450 1456 1459 1466 1475 1483 1488 1493 1499 1505 1510 1515 1519 1524 1528 1532 1535 1539 1541 1544 1546 1548 1550 1551 1552 1553 1553 1553
1441 1451 1457 1452 1434 1428 1440 1433 1426 1432 1422 1441 1451 1485 1453 1451 1450 1456 1459 1466 1473 1481 1486 1492 1498 1504 1509 1514 1518 1522 1525 1529 1532 1535 1538 1540 1543 1544 1546 1549 1549 1550 1550 1550
1443 1440 1441 1455 1457 1454 1452 1437 1427 1428 1444 1461 1489 1462 1447 1446 1450 1456 1461 1465 1472 1479 1484 1489 1496 1503 1508 1512 1516 1520 1524 1527 1530 1533 1536 1538 1540 1543 1544 1546 1546 1548 1548 1548
1448 1446 1434 1428 1436 1451 1445 1446 1431 1437 1433 1454 1480 1457 1434 1437 1446 1456 1463 1469 1473 1478 1481 1488 1494 1500 1505 1510 1514 1518 1522 1525 1528 1531 1534 1536 1538 1541 1542 1544 1544 1544 1546 1547
1440 1447 1441 1439 1427 1430 1439 1427 1428 1430 1432 1434 1436 1438 1425 1436 1448 1458 1463 1468 1473 1478 1482 1488 1494 1498 1502 1506 1511 1515 1519 1523 1526 1528 1531 1534 1535 1536 1538 1540 1540 1542 1543 1544
1435 1438 1444 1456 1432 1429 1446 1431 1429 1429 1428 1431 1442 1444 1436 1443 1450 1456 1463 1467 1472 1476 1481 1486 1492 1496 1500 1504 1507 1511 1515 1520 1523 1525 1529 1531 1532 1534 1535 1536 1537 1538 1539 1541
1443 1439 1440 1448 1440 1494 1437 1420 1429 1443 1447 1433 1433 1436 1442 1441 1450 1456 1462 1467 1471 1475 1480 1484 1490 1494 1498 1502 1506 1509 1513 1517 1520 1524 1526 1529 1530 1532 1534 1536 1536 1537 1538 1539
1439 1443 1450 1457 1456 1434 1426 1420 1433 1434 1441 1441 1443 1440 1445 1447 1450 1457 1461 1466 1470 1474 1480 1485 1489 1494 1498 1502 1504 1507 1511 1515 1518 1523 1525 1528 1530 1532 1534 1535 1535 1536 1537 1538
1433 1431 1442 1447 1456 1469 1433 1428 1432 1431 1446 1448 1448 1451 1452 1448 1450 1448 1458 1464 1469 1473 1478 1484 1489 1494 1498 1502 1505 1509 1511 1515 1519 1523 1525 1528 1530 1531 1533 1534 1534 1535 1537 1538
1437 1440 1444 1444 1449 1437 1433 1432 1440 1453 1455 1453 1455 1458 1458 1452 1454 1458 1459 1464 1468 1473 1478 1484 1489 1494 1499 1502 1506 1509 1511 1515 1518 1521 1524 1527 1529 1530 1532 1533 1534 1536 1538 1538
1440 1443 1440 1439 1448 1454 1443 1441 1446 1452 1453 1457 1461 1463 1463 1461 1459 1460 1458 1463 1467 1472 1477 1483 1489 1494 1498 1502 1506 1508 1511 1512 1516 1520 1523 1526 1528 1530 1531 1532 1534 1536 1537 1538
1452 1446 1454 1453 1452 1455 1456 1457 1456 1456 1461 1462 1464 1466 1467 1464 1463 1460 1458 1463 1468 1473 1477 1483 1488 1493 1498 1502 1504 1506 1507 1511 1515 1519 1522 1526 1528 1529 1531 1533 1535 1537 1539 1542
1446 1457 1460 1458 1447 1457 1462 1465 1466 1465 1467 1467 1467 1469 1469 1468 1466 1461 1461 1463 1467 1472 1477 1482 1487 1492 1496 1501 1505 1505 1507 1511 1515 1519 1523 1525 1527 1530 1532 1536 1539 1541 1542 1544
1453 1457 1460 1456 1454 1458 1462 1465 1468 1469 1471 1470 1470 1472 1472 1471 1469 1467 1464 1464 1467 1470 1475 1481 1486 1493 1497 1501 1503 1504 1507 1511 1515 1519 1523 1527 1529 1533 1535 1535 1538 1538 1540 1542
1459 1458 1460 1458 1458 1458 1458 1461 1467 1471 1471 1472 1473 1473 1473 1473 1472 1470 1467 1467 1466 1469 1473 1479 1484 1490 1495 1497 1499 1502 1506 1511 1515 1520 1524 1527 1530 1532 1534 1535 1536 1538 1540 1542